FW1757 Weather Reports


time (UTC)temp
C
wind
direction
speed
KPH
gust
KPH
rain 1hr
cm
rain 24hr
cm
rain mn
cm
humidity
%
barometer
mb
20260504221052 24 299 0.0 0.0 0.00 0.00 0.00 49 1006.4
20260504220552 24 294 0.0 0.0 0.00 0.00 0.00 49 1006.4
20260504220110 24 271 0.0 0.0 0.00 0.00 0.00 49 1006.5
20260504215552 24 323 0.0 0.0 0.00 0.00 0.00 48 1006.5
20260504215052 24 281 0.0 0.0 0.00 0.00 0.00 48 1006.6
20260504214554 24 284 0.0 0.0 0.00 0.00 0.00 50 1006.7
20260504214049 24 219 0.0 0.0 0.00 0.00 0.00 50 1006.6
20260504213549 23 277 0.0 0.0 0.00 0.00 0.00 50 1006.7
20260504213054 23 282 0.0 0.0 0.00 0.00 0.00 50 1006.8
20260504212549 23 292 0.0 0.0 0.00 0.00 0.00 49 1006.8
20260504212051 24 298 0.0 0.0 0.00 0.00 0.00 47 1006.9
20260504211551 24 304 0.0 0.0 0.00 0.00 0.00 49 1007.0
20260504211047 24 286 0.0 0.0 0.00 0.00 0.00 50 1007.0
20260504210546 24 215 0.0 0.0 0.00 0.00 0.00 50 1007.1
20260504210045 23 269 0.0 0.0 0.00 0.00 0.00 50 1007.1
20260504205544 23 282 0.0 0.0 0.00 0.00 0.00 50 1007.1
20260504205044 23 264 0.0 0.0 0.00 0.00 0.00 50 1007.2
20260504204544 23 271 0.0 0.0 0.00 0.00 0.00 52 1007.2
20260504204042 23 262 0.0 0.0 0.00 0.00 0.00 51 1007.2
20260504203542 23 275 0.0 0.0 0.00 0.00 0.00 51 1007.2
20260504203042 23 295 0.0 0.0 0.00 0.00 0.00 50 1007.3
20260504202542 23 281 0.0 0.0 0.00 0.00 0.00 50 1007.2
20260504202042 23 285 0.0 0.0 0.00 0.00 0.00 53 1007.3
20260504201540 23 265 0.0 0.0 0.00 0.00 0.00 51 1007.5
20260504201043 23 306 0.0 0.0 0.00 0.00 0.00 51 1007.4
20260504200540 23 288 0.0 0.0 0.00 0.00 0.00 51 1007.5
20260504200043 22 289 0.0 0.0 0.00 0.00 0.00 52 1007.5
20260504195538 22 289 0.0 0.0 0.00 0.00 0.00 55 1007.6
20260504195036 22 271 0.0 0.0 0.00 0.00 0.00 51 1007.7
20260504194540 22 288 0.0 0.0 0.00 0.00 0.00 52 1007.6
20260504194034 22 214 0.0 0.0 0.00 0.00 0.00 53 1007.6
20260504193534 22 263 0.0 0.0 0.00 0.00 0.00 54 1007.7
20260504193032 22 276 0.0 0.0 0.00 0.00 0.00 54 1007.8
20260504192533 22 286 0.0 0.0 0.00 0.00 0.00 55 1007.8
20260504192030 21 252 0.0 0.0 0.00 0.00 0.00 55 1007.9
20260504191546 21 286 0.0 0.0 0.00 0.00 0.00 53 1007.9
20260504191029 21 294 0.0 0.0 0.00 0.00 0.00 57 1007.9
20260504190528 21 309 0.0 0.0 0.00 0.00 0.00 57 1008.0
20260504190027 21 284 0.0 0.0 0.00 0.00 0.00 59 1008.0
20260504185525 21 263 0.0 0.0 0.00 0.00 0.00 57 1008.0
20260504185025 21 304 0.0 0.0 0.00 0.00 0.00 57 1008.1
20260504184524 20 275 0.0 0.0 0.00 0.00 0.00 59 1008.0
20260504184025 20 255 0.0 0.0 0.00 0.00 0.00 59 1008.1
20260504183521 20 297 0.0 0.0 0.00 0.00 0.00 58 1008.1
20260504183036 20 311 0.0 0.0 0.00 0.00 0.00 58 1008.1
20260504182520 20 290 0.0 0.0 0.00 0.00 0.00 57 1008.0
20260504182022 20 298 0.0 0.0 0.00 0.00 0.00 59 1008.1
20260504181524 20 305 0.0 0.0 0.00 0.00 0.00 59 1008.2
20260504181017 20 282 0.0 0.0 0.00 0.00 0.00 61 1008.1
20260504180517 20 272 0.0 0.0 0.00 0.00 0.00 60 1008.2
20260504180020 19 328 0.0 0.0 0.00 0.00 0.00 60 1008.2
20260504175515 19 292 0.0 0.0 0.00 0.00 0.00 60 1008.1
20260504175014 19 308 0.0 0.0 0.00 0.00 0.00 62 1008.1
20260504174515 19 302 0.0 0.0 0.00 0.00 0.00 61 1008.1
20260504174013 18 302 0.0 0.0 0.00 0.00 0.00 61 1008.2
20260504173512 18 257 0.0 0.0 0.00 0.00 0.00 62 1008.1
20260504173009 18 281 0.0 0.0 0.00 0.00 0.00 62 1008.1
20260504172510 18 313 0.0 0.0 0.00 0.00 0.00 62 1008.0
20260504172009 18 287 0.0 0.0 0.00 0.00 0.00 62 1008.1
20260504171507 18 286 0.0 0.0 0.00 0.00 0.00 63 1008.1
20260504171010 18 290 0.0 0.0 0.00 0.00 0.00 64 1008.1
20260504170508 18 306 0.0 0.0 0.00 0.00 0.00 63 1008.1
20260504151050 15 321 0.0 0.0 0.00 0.00 0.00 63 1008.2
20260504150552 15 300 0.0 0.0 0.00 0.00 0.00 63 1008.2
20260504141046 13 269 0.0 0.0 0.00 0.00 0.00 64 1007.8
20260504140546 13 221 0.0 0.0 0.00 0.00 0.00 65 1007.7
20260504130542 12 264 0.0 0.0 0.00 0.00 0.00 61 1007.1
20260504110531 13 179 0.0 0.0 0.00 0.00 0.00 67 1007.0
20260504100529 13 128 0.0 0.0 0.00 0.00 0.00 67 1007.0
20260504081522 14 123 0.0 0.0 0.00 0.00 0.00 66 1007.1
20260504081018 14 123 0.0 0.0 0.00 0.00 0.00 66 1007.2
20260504080517 15 123 0.0 0.0 0.00 0.00 0.00 66 1007.2
20260504050506 18 123 0.0 0.0 0.00 0.00 0.00 52 1006.7
20260504050005 19 123 0.0 0.0 0.00 0.00 0.00 52 1006.7
20260504045504 19 123 0.0 0.0 0.00 0.00 0.00 51 1006.6
20260504045003 20 123 0.0 0.0 0.00 0.00 0.00 51 1006.5
20260504044505 20 123 0.0 0.0 0.00 0.00 0.00 49 1006.5
20260504044100 20 123 0.0 0.0 0.00 0.00 0.00 48 1006.5
20260504043559 20 123 0.0 0.0 0.00 0.00 0.00 47 1006.5
20260504043101 21 123 0.0 0.0 0.00 0.00 0.00 46 1006.5
20260504042557 21 123 0.0 0.0 0.00 0.00 0.00 45 1006.4
20260504042058 21 123 0.0 0.0 0.00 0.00 0.00 43 1006.3
20260504041552 22 123 0.0 0.0 0.00 0.00 0.00 42 1006.3
20260504041051 22 123 0.0 0.0 0.00 0.00 0.00 44 1006.2
20260504040550 23 123 0.0 0.0 0.00 0.00 0.00 40 1006.2
20260504035551 23 123 0.0 0.0 0.00 0.00 0.00 37 1005.9
20260504035049 23 123 0.0 0.0 0.00 0.00 0.00 37 1005.9
20260504034556 23 123 0.0 0.0 0.00 0.00 0.00 36 1005.9
20260504034046 24 123 0.0 0.0 0.00 0.00 0.00 36 1005.8
20260504033541 24 123 0.0 0.0 0.00 0.00 0.00 36 1005.8
20260504033059 24 138 0.0 0.0 0.00 0.00 0.00 36 1005.8
20260504032538 24 138 0.0 0.0 0.00 0.00 0.00 36 1005.7
20260504032038 24 138 0.0 0.0 0.00 0.00 0.00 37 1005.7
20260504031536 25 138 0.0 0.0 0.00 0.00 0.00 37 1005.7
20260504031035 25 138 0.0 0.0 0.00 0.00 0.00 36 1005.7
20260504030532 25 138 0.0 0.0 0.00 0.00 0.00 38 1005.6
20260504030041 25 145 0.0 0.0 0.00 0.00 0.00 36 1005.7
20260504025534 26 145 0.0 0.0 0.00 0.00 0.00 39 1005.6
20260504025030 26 145 0.0 0.0 0.00 0.00 0.00 37 1005.6
20260504024527 27 145 0.0 0.0 0.00 0.00 0.00 35 1005.7
20260504024025 28 145 0.0 0.0 0.00 0.00 0.00 37 1005.7
20260504023524 28 145 0.0 0.0 0.00 0.00 0.00 36 1005.6
20260504023025 28 145 0.0 0.0 0.00 0.00 0.00 31 1005.6
20260504022521 29 145 0.0 0.0 0.00 0.00 0.00 30 1005.6
20260504022018 29 145 0.0 0.0 0.00 0.00 0.00 28 1005.7
20260504021517 30 146 0.0 0.0 0.00 0.00 0.00 27 1005.7
20260504021016 30 146 0.0 0.0 0.00 0.00 0.00 27 1005.8
20260504020514 30 146 0.0 0.0 0.00 0.00 0.00 27 1005.9
20260504020013 30 146 0.0 0.0 0.00 0.00 0.00 28 1005.9
20260504015513 31 146 0.0 0.0 0.00 0.00 0.00 27 1005.9
20260504015010 31 146 0.0 0.0 0.00 0.00 0.00 26 1006.0
20260504014524 31 143 0.0 0.0 0.00 0.00 0.00 27 1006.0
20260504014010 31 142 0.0 0.0 0.00 0.00 0.00 27 1006.1
20260504013506 31 142 0.0 0.0 0.00 0.00 0.00 26 1006.1
20260504013005 31 144 0.0 0.0 0.00 0.00 0.00 26 1006.2
20260504012503 31 144 0.0 0.0 0.00 0.00 0.00 25 1006.2
20260504012002 31 142 0.0 0.0 0.00 0.00 0.00 25 1006.2
20260504011601 31 140 0.0 0.0 0.00 0.00 0.00 25 1006.3
20260504011059 32 140 0.0 0.0 0.00 0.00 0.00 24 1006.3
20260504010557 32 149 0.0 0.0 0.00 0.00 0.00 24 1006.4
20260504010111 32 142 0.0 0.0 0.00 0.00 0.00 23 1006.6
20260504005559 32 62 0.0 0.0 0.00 0.00 0.00 25 1006.6
20260504005053 32 46 0.0 0.0 0.00 0.00 0.00 25 1006.6
20260504004612 32 42 0.0 0.0 0.00 0.00 0.00 25 1006.7
20260504004052 32 36 0.0 0.0 0.00 0.00 0.00 26 1006.8
20260504003552 32 134 0.0 0.0 0.00 0.00 0.00 25 1006.8
20260504003047 32 138 0.0 0.0 0.00 0.00 0.00 25 1006.8
20260504002546 32 138 0.0 0.0 0.00 0.00 0.00 25 1006.8
20260504002045 32 138 0.0 0.0 0.00 0.00 0.00 24 1006.8
20260504001544 32 142 0.0 0.0 0.00 0.00 0.00 24 1006.9
20260504001042 32 85 0.0 0.0 0.00 0.00 0.00 26 1007.0
20260504000541 32 61 0.0 0.0 0.00 0.00 0.00 26 1007.0
20260504000039 32 53 0.0 0.0 0.00 0.00 0.00 24 1007.0
20260503235537 32 36 0.0 0.0 0.00 0.00 0.00 25 1007.1
20260503235036 32 48 0.0 0.0 0.00 0.00 0.00 25 1007.1
20260503234541 32 28 0.0 0.0 0.00 0.00 0.00 25 1007.1
20260503234033 32 82 0.0 0.0 0.00 0.00 0.00 25 1007.2
20260503233531 32 85 0.0 0.0 0.00 0.00 0.00 25 1007.2
20260503233030 32 76 0.0 0.0 0.00 0.00 0.00 26 1007.3
20260503232528 32 80 0.0 0.0 0.00 0.00 0.00 25 1007.4
20260503232027 32 78 0.0 0.0 0.00 0.00 0.00 26 1007.6
20260503231530 32 73 0.0 0.0 0.00 0.00 0.00 28 1007.5
20260503231025 32 161 0.0 0.0 0.00 0.00 0.00 27 1007.7
20260503230523 32 160 0.0 0.0 0.00 0.00 0.00 26 1007.7
20260503230021 32 177 0.0 0.0 0.00 0.00 0.00 24 1007.8
20260503225520 31 157 0.0 0.0 0.00 0.00 0.00 26 1007.9
20260503225019 31 166 0.0 0.0 0.00 0.00 0.00 26 1008.1
20260503224517 31 93 0.0 0.0 0.00 0.00 0.00 25 1008.2
20260503224015 31 119 0.0 0.0 0.00 0.00 0.00 27 1008.2
20260503223513 31 161 0.0 0.0 0.00 0.00 0.00 28 1008.4
20260503223113 31 144 0.0 0.0 0.00 0.00 0.00 26 1008.4
20260503222510 31 136 0.0 0.0 0.00 0.00 0.00 28 1008.6
20260503222009 31 84 0.0 0.0 0.00 0.00 0.00 30 1008.6
20260503221508 31 74 0.0 0.0 0.00 0.00 0.00 30 1008.9